EDT,Max TemperatureF,Mean TemperatureF,Min TemperatureF,Max Dew PointF,MeanDew PointF,Min DewpointF,Max Humidity, Mean Humidity, Min Humidity, Max Sea Level PressureIn, Mean Sea Level PressureIn, Min Sea Level PressureIn, Max VisibilityMiles, Mean VisibilityMiles, Min VisibilityMiles, Max Wind SpeedMPH, Mean Wind SpeedMPH, Max Gust SpeedMPH,PrecipitationIn, CloudCover, Events, WindDirDegrees
2012-10-1,66,61,55,63,58,54,100,94,87,29.84,29.74,29.64,10,7,2,12,5,16,1.13,7,Rain,78
2012-10-2,77,68,59,65,62,58,93,77,61,29.97,29.78,29.65,10,10,10,17,6,23,T,7,,222
2012-10-3,72,64,55,59,55,48,100,72,44,30.18,30.08,29.97,10,9,3,12,2,15,T,4,Rain,236
2012-10-4,75,63,51,58,55,50,100,73,46,30.29,30.23,30.19,10,8,2,10,2,14,0.00,1,,233
2012-10-5,77,64,50,59,54,49,100,73,46,30.24,30.15,29.98,10,6,2,12,3,16,0.00,2,,220
2012-10-6,64,54,44,57,45,35,100,74,47,30.16,30.08,29.94,10,9,4,17,5,23,0.22,6,Rain,337
2012-10-7,56,49,42,41,39,36,89,70,50,30.18,30.13,30.07,10,10,10,10,2,14,T,5,,343
2012-10-8,51,45,38,43,41,38,100,86,71,30.25,30.19,30.16,10,9,2,8,3,10,0.25,6,Rain,43
2012-10-9,55,45,35,45,41,36,100,81,61,30.21,30.13,30.06,10,7,0,8,1,12,0.00,5,Fog,192
2012-10-10,60,50,39,49,44,37,93,70,47,30.25,30.12,30.03,10,10,8,16,5,21,0.00,4,,258
2012-10-11,66,49,32,44,37,31,100,66,31,30.32,30.27,30.21,10,10,10,12,1,15,0.00,1,,235
2012-10-12,63,53,43,47,43,40,93,68,43,30.33,30.28,30.22,10,10,7,8,2,13,T,4,Rain,28
2012-10-13,75,57,38,56,48,38,100,77,53,30.32,30.25,30.14,10,9,4,14,4,17,0.00,0,,180
2012-10-14,72,66,59,63,56,50,93,77,61,30.13,30.00,29.87,10,9,2,23,9,33,0.21,3,Rain,190
2012-10-15,65,54,43,61,49,41,93,71,48,29.99,29.93,29.86,10,10,8,20,7,26,T,4,,276
2012-10-16,67,52,37,45,41,37,100,67,34,30.04,29.97,29.88,10,7,0,7,1,9,0.00,1,Fog,189
2012-10-17,72,58,44,48,44,38,93,62,31,29.91,29.83,29.68,10,10,10,16,5,22,0.00,0,,171
2012-10-18,65,54,42,54,46,31,93,62,30,29.77,29.72,29.63,10,10,7,24,8,35,0.12,5,Rain,229
2012-10-19,62,51,39,39,36,33,82,59,36,29.80,29.73,29.65,10,10,10,20,6,29,0.00,5,,231
2012-10-20,57,49,41,44,41,39,92,74,55,30.02,29.91,29.80,10,10,8,15,4,18,0.00,7,,246
2012-10-21,68,52,36,47,42,35,100,71,42,30.17,30.12,30.04,10,9,6,8,1,10,0.00,0,,182
2012-10-22,77,61,44,51,46,43,93,62,31,30.22,30.16,30.12,10,10,7,14,1,15,0.00,3,,219
2012-10-23,78,63,48,53,49,45,93,62,30,30.17,30.12,30.06,10,9,2,13,2,17,0.00,0,,237
2012-10-24,78,64,49,53,49,45,93,63,33,30.19,30.12,30.06,10,10,8,10,1,13,0.00,1,,227
2012-10-25,78,62,45,52,48,43,93,63,33,30.12,30.07,30.01,10,10,6,12,2,16,0.00,0,,186
2012-10-26,77,63,49,57,51,46,93,72,50,30.08,30.03,29.97,10,10,8,14,4,18,0.01,4,Rain,337
2012-10-27,49,47,45,47,45,43,93,90,86,30.06,30.02,29.98,10,8,2,14,8,18,0.12,8,Rain,356
2012-10-28,45,43,41,43,41,37,96,89,82,30.01,29.97,29.94,10,8,3,17,9,23,0.37,8,Rain,353
2012-10-29,42,40,37,37,33,26,86,71,55,30.00,29.92,29.76,10,10,10,22,12,37,0.01,8,Rain,324
2012-10-30,41,38,35,36,34,28,92,76,60,29.78,29.68,29.61,10,9,6,22,13,32,0.35,8,Rain,282
2012-10-31,51,44,37,36,33,29,92,69,46,29.88,29.79,29.75,10,10,6,18,9,25,T,8,Rain,269